DateTimeUTC,F1_A11,F1_S11,BsB_S11,BsG_S11,BsR_S11,BbsB_S11,BbsG_S11,BbsR_S11,BaB_A11,BaG_A11,BaR_A11,Tu_S11,T_S11,Uu_S11,U_S11,P_S11,T1_A11
2021-09-02T13:00:00Z,00000200,21000000,,,,,,,-000.15,-000.28,-000.14,18.6,25.6,01.2,00.8,0677.8,31.0
2021-09-02T13:01:00Z,00000200,21000000,,,,,,,-000.08,-000.01,-000.08,18.5,25.5,01.2,00.8,0677.8,31.0
2021-09-02T13:02:00Z,00000200,21000000,,,,,,,-000.13,0000.26,0000.13,18.6,25.6,01.2,00.8,0677.8,31.0
2021-09-02T13:03:00Z,00000200,61000000,,,,,,,0001.06,0000.54,0000.31,18.6,25.6,01.2,00.8,0677.8,31.0
2021-09-02T13:04:00Z,00000200,41000000,0003.00,0002.35,0001.77,0000.11,0000.25,0000.19,0000.82,0000.74,0000.93,18.8,25.5,01.5,01.0,0678.8,31.0
2021-09-02T13:05:00Z,00000200,01000000,0003.12,0002.83,0001.54,0000.95,0000.34,0000.23,0000.78,0000.70,0000.38,18.9,25.4,01.5,01.0,0678.8,31.0
2021-09-02T13:06:00Z,00000200,01000000,0004.04,0002.91,0001.61,0000.36,0000.41,0000.22,0000.51,0000.51,0000.47,18.9,25.4,01.7,01.1,0678.8,31.0
2021-09-02T13:07:00Z,00000200,01000000,0003.67,0002.88,0001.66,0001.37,0000.38,0000.39,0001.17,0000.98,0000.65,18.9,25.4,01.6,01.1,0678.8,31.0
2021-09-02T13:08:00Z,00000200,01000000,0004.01,0002.82,0001.77,0001.12,0000.53,0000.13,0000.33,0000.58,0000.57,18.8,25.4,01.7,01.1,0678.8,31.0
2021-09-02T13:09:00Z,00000200,01000000,0003.22,0002.92,0001.98,0000.54,0000.28,0000.43,0001.27,0001.00,0000.51,18.8,25.4,01.6,01.1,0678.8,31.0
2021-09-02T13:10:00Z,00000200,01000000,0003.32,0002.94,0001.96,0000.47,0000.37,0000.36,0000.79,0000.80,0000.59,18.8,25.3,01.6,01.1,0678.8,31.0
2021-09-02T13:11:00Z,00000200,01000000,0003.60,0003.11,0001.92,0000.60,0000.49,0000.07,0000.63,0000.80,0000.59,18.8,25.3,01.7,01.1,0678.8,31.0
2021-09-02T13:12:00Z,00000200,01000000,0003.47,0003.04,0001.93,0000.53,0000.39,0000.31,0001.16,0000.66,0000.94,18.8,25.3,01.7,01.2,0678.8,31.0
2021-09-02T13:13:00Z,00000200,01000000,0003.52,0002.93,0001.96,0000.59,0000.55,0000.12,0000.84,0000.95,0000.69,18.8,25.3,01.7,01.1,0678.7,31.0
2021-09-02T13:14:00Z,00000200,01000000,0003.80,0003.46,0001.93,0000.82,0000.20,0000.13,0000.94,0000.91,0000.82,18.9,25.3,01.7,01.1,0678.7,31.0
2021-09-02T13:15:00Z,00000200,01000000,0003.71,0002.86,0001.98,0000.73,0000.19,0000.40,0000.73,0000.66,0000.42,18.9,25.4,01.7,01.2,0678.6,31.0
2021-09-02T13:16:00Z,00000200,01000000,0004.05,0002.28,0002.18,0001.43,0000.26,-000.12,0000.67,0000.64,0000.56,18.9,25.4,01.7,01.1,0678.7,31.0
2021-09-02T13:17:00Z,00000200,01000000,0002.98,0003.11,0001.90,0000.56,0000.25,0000.40,0001.20,0000.78,0000.63,18.9,25.4,01.7,01.2,0678.7,31.0
2021-09-02T13:18:00Z,00000200,01000000,0003.31,0002.95,0001.89,0001.09,0000.19,0000.18,0000.61,0000.75,0000.62,19.0,25.4,01.7,01.2,0678.8,31.0
2021-09-02T13:19:00Z,00000200,01000000,0003.93,0003.14,0002.17,-000.07,0000.60,0000.32,0000.64,0000.88,0000.62,19.0,25.4,01.8,01.2,0678.8,31.0
2021-09-02T13:20:00Z,00000200,01000000,0004.32,0002.99,0001.78,-000.18,0000.24,0000.08,0000.95,0000.61,0000.45,19.0,25.4,01.8,01.2,0678.7,31.0
2021-09-02T13:21:00Z,00000200,01000000,0003.66,0002.91,0001.91,0000.77,0000.49,0000.70,0000.81,0000.65,0000.61,19.0,25.4,01.7,01.2,0678.6,31.0
2021-09-02T13:22:00Z,00000200,01000000,0003.93,0002.95,0002.10,0001.03,0000.32,0000.24,0000.87,0001.20,0000.45,18.9,25.4,01.8,01.2,0678.8,31.0
2021-09-02T13:23:00Z,00000200,01000000,0003.40,0003.00,0002.17,0000.91,0000.18,0000.28,0000.90,0000.74,0000.71,18.9,25.4,01.8,01.2,0678.7,31.0
2021-09-02T13:24:00Z,00000200,01000000,0003.96,0002.96,0001.99,0000.79,0000.54,0000.77,0000.75,0000.58,0000.53,18.9,25.4,01.8,01.2,0678.7,31.0
2021-09-02T13:25:00Z,00000200,01000000,0004.50,0002.79,0002.16,0001.09,0000.39,0000.43,0001.00,0001.00,0001.17,18.9,25.4,01.8,01.2,0678.7,31.0
2021-09-02T13:26:00Z,00000200,01000000,0003.64,0003.13,0001.90,0001.10,0000.35,0000.20,0000.65,0000.63,0000.04,18.9,25.3,01.8,01.2,0678.7,31.0
2021-09-02T13:27:00Z,00000200,01000000,0003.55,0003.06,0002.01,0000.72,0000.07,0000.12,0001.06,0000.75,0000.92,18.9,25.4,01.9,01.2,0678.7,31.0
2021-09-02T13:28:00Z,00000200,01000000,0003.23,0002.79,0001.97,0000.95,0000.20,0000.18,0000.90,0000.95,0000.68,18.9,25.3,01.9,01.3,0678.7,31.0
2021-09-02T13:29:00Z,00000200,01000000,0003.83,0003.02,0001.91,0000.93,0000.42,0000.15,0000.61,0000.66,0000.23,18.9,25.4,01.9,01.3,0678.6,31.0
2021-09-02T13:30:00Z,00000200,01000000,0003.48,0003.32,0001.92,0000.57,0000.65,0000.02,0001.02,0000.61,0000.49,18.9,25.3,01.9,01.3,0678.6,31.0
2021-09-02T13:31:00Z,00000200,00000000,0003.12,0003.00,0001.98,0000.29,0000.60,-000.16,0000.59,0000.80,0000.77,18.8,25.3,01.9,01.2,0678.6,31.0
2021-09-02T13:32:00Z,00000200,01000000,0003.55,0002.99,0001.73,0000.61,0000.19,0000.20,0000.89,0000.75,0000.57,18.8,25.3,01.9,01.3,0678.6,31.0
2021-09-02T13:33:00Z,00000200,01000000,0003.05,0002.74,0002.10,0000.23,0000.31,0000.05,0001.04,0000.70,0000.75,18.8,25.3,01.9,01.3,0678.6,31.0
2021-09-02T13:34:00Z,00000200,00000000,0004.00,0002.87,0001.70,0000.67,0000.44,0000.33,0000.88,0000.85,0000.54,18.8,25.3,02.1,01.4,0678.6,31.0
2021-09-02T13:35:00Z,00000200,01000000,0004.14,0002.39,0002.23,0001.24,0000.34,0000.38,0000.73,0000.68,0000.99,18.8,25.3,02.0,01.4,0678.5,31.0
2021-09-02T13:36:00Z,00000200,00000000,0003.08,0002.85,0001.79,0000.91,0000.07,0000.10,0000.87,0001.07,0000.36,18.8,25.3,02.0,01.3,0678.5,31.0
2021-09-02T13:37:00Z,00000200,01000000,0003.15,0002.96,0001.83,-000.03,0000.32,0000.17,0000.85,0000.54,0000.40,18.8,25.3,01.9,01.3,0678.5,31.0
2021-09-02T13:38:00Z,00000200,01000000,0003.92,0003.18,0002.05,0000.31,0000.55,0000.27,0000.74,0000.79,0000.78,18.8,25.3,02.0,01.3,0678.4,31.0
2021-09-02T13:39:00Z,00000200,00000000,0003.71,0003.29,0002.07,0000.23,0000.53,0000.22,0000.80,0001.02,0000.71,18.8,25.3,02.0,01.3,0678.5,31.0
2021-09-02T13:40:00Z,00000200,00000000,0003.61,0003.35,0001.88,0000.11,0000.15,0000.30,0001.37,0000.69,0000.58,18.8,25.3,01.9,01.3,0678.4,31.0
2021-09-02T13:41:00Z,00000200,00000000,0005.08,0003.15,0002.14,0000.44,0000.35,0000.17,0000.56,0000.64,0000.63,18.8,25.3,02.0,01.3,0678.4,31.0
2021-09-02T13:42:00Z,00000200,00000000,0004.30,0003.25,0001.47,0001.27,0000.48,-000.07,0000.61,0000.77,0000.67,18.8,25.3,02.0,01.3,0678.4,31.0
2021-09-02T13:43:00Z,00000200,01000000,0003.83,0003.54,0001.97,0000.75,0000.43,0000.00,0001.05,0000.69,0000.49,18.8,25.3,01.9,01.3,0678.3,31.0
2021-09-02T13:44:00Z,00000200,00000000,0003.56,0003.14,0002.21,0000.87,0000.24,0000.41,0000.95,0001.26,0000.69,18.8,25.3,01.9,01.3,0678.4,31.0
2021-09-02T13:45:00Z,00000200,00000000,0003.28,0002.86,0002.29,0000.91,0000.57,0000.28,0000.62,0000.53,0000.51,18.8,25.3,02.1,01.4,0678.5,31.0
2021-09-02T13:46:00Z,00000200,00000000,0004.59,0003.23,0002.14,0000.21,0000.29,0000.40,0001.05,0001.22,0000.85,18.8,25.3,02.0,01.4,0678.5,31.0
2021-09-02T13:47:00Z,00000200,00000000,0004.32,0003.31,0002.37,0001.04,0000.24,0000.44,0001.08,0000.36,0000.76,18.8,25.3,02.2,01.5,0678.4,31.0
2021-09-02T13:48:00Z,00000200,00000000,0003.65,0003.14,0001.81,0001.00,0000.16,0000.49,0000.94,0000.92,0000.73,18.8,25.3,02.2,01.5,0678.4,31.0
2021-09-02T13:49:00Z,00000200,00000000,0003.06,0003.63,0002.31,0001.49,0000.32,0000.41,0000.70,0001.04,0000.24,18.8,25.3,02.1,01.4,0678.4,31.0
2021-09-02T13:50:00Z,00000200,00000000,0003.41,0003.15,0001.90,0000.79,0000.35,0000.21,0000.90,0000.74,0001.01,18.8,25.3,02.1,01.4,0678.4,31.0
2021-09-02T13:51:00Z,00000200,00000000,0003.81,0002.93,0001.92,0000.96,0000.41,0000.17,0001.21,0000.91,0000.48,18.8,25.3,02.2,01.5,0678.4,31.0
2021-09-02T13:52:00Z,00000200,00000000,0003.29,0003.32,0002.11,0000.56,0000.61,0000.01,0000.81,0000.68,0000.78,18.8,25.3,02.2,01.5,0678.4,31.0
2021-09-02T13:53:00Z,00000200,00000000,0003.18,0003.27,0002.37,0000.99,0000.16,0000.41,0000.92,0000.87,0001.06,18.8,25.3,02.2,01.5,0678.4,31.0
2021-09-02T13:54:00Z,00000200,00000000,0004.00,0003.13,0002.07,0000.52,0000.51,0000.10,0001.01,0001.40,0000.33,18.8,25.3,02.1,01.4,0678.4,31.0
2021-09-02T13:55:00Z,00000200,00000000,0003.61,0003.50,0002.23,0000.40,0000.36,0000.11,0001.14,0000.70,0001.08,18.8,25.3,02.2,01.5,0678.4,31.0
2021-09-02T13:56:00Z,00000200,00000000,0004.30,0003.17,0001.86,0001.15,0000.22,0000.39,0000.85,0000.77,0000.42,18.8,25.3,02.3,01.5,0678.4,31.0
2021-09-02T13:57:00Z,00000200,40000000,,,,,,,-000.29,-000.12,0000.01,18.8,25.3,02.2,01.5,0678.3,31.0
2021-09-02T13:58:00Z,00000200,60000000,,,,,,,0000.56,0000.18,0000.11,18.5,25.4,02.0,01.3,0677.3,31.0
2021-09-02T13:59:00Z,00000200,20000000,,,,,,,-000.10,-000.19,0000.25,18.5,25.5,02.0,01.3,0677.2,31.0
